Regional Weather Roundup
Issued by NWS

Home | Current Version | Previous Version | Graphics & Text | Print | Product List | Glossary On
Versions: 1 2 3 4 5 6 7 8 9 10 11 12 13 14 15 16 17 18 19 20 21 22 23 24 25 26 27 28 29 30 31 32 33 34 35 36 37 38 39 40 41 42 43 44 45 46 47 48 49 50
000
ASUS45 KSLC 290310
RWRUT

UTAH REGIONAL WEATHER ROUNDUP
NATIONAL WEATHER SERVICE SALT LAKE CITY UT
900 PM MDT MON JUL 28 2014

UTZ001>011-023>025-290400-

NORTHERN UTAH

CITY           SKY/WX    TMP DP  RH WIND       PRES   REMARKS
HILL AFB       CLOUDY    69  56  62 E9G17     30.24R
LOGAN          CLOUDY    71  58  63 N6        30.24R
OGDEN          CLOUDY    72  55  55 S10       30.21R
PROVO AIRPORT  CLOUDY    70  61  73 W3        30.23F
SALT LAKE CITY CLOUDY    69  62  78 SE9       30.19F
VERNAL         CLOUDY    70  56  61 S7        30.31R
WENDOVER       CLOUDY    82  46  28 NW14G20   30.14S
HEBER CITY     CLOUDY    64  59  82 CALM      30.31F
WEST JORDAN    CLOUDY    70  66  88 CALM      30.24S

$$

UTZ012>022-026-027-290400-

SOUTHERN UTAH

CITY           SKY/WX    TMP DP  RH WIND       PRES   REMARKS
BRYCE CANYON   CLOUDY    61  54  77 N7        30.43S
CEDAR CITY     CLOUDY    67  57  70 S7        30.26S
MILFORD        CLOUDY    77  54  44 E5        30.20R
MOAB/CYNLANDS  CLOUDY    84  50  30 SE7       30.14R
PRICE          CLOUDY    68  58  70 S5        30.29S
ST GEORGE      CLOUDY    84  55  37 SE8       30.09S
KANAB            N/A     70  59  68 CALM      30.28R

$$

REGIONAL REPORTS     COLORADO/ARIZONA

CITY           SKY/WX    TMP DP  RH WIND       PRES   REMARKS
CRAIG, CO      CLOUDY    62  52  69 W5        30.31R
GRAND JUNCTION CLOUDY    73  55  53 N15G25    30.23R
RIFLE          LGT RAIN  65  58  78 E7        30.31F
MONTROSE       LGT RAIN  77  54  44 E17       30.29R
CORTEZ         LGT RAIN  66  58  75 NE7       30.35R
PAGE, AZ       CLOUDY    81  54  39 SE6       30.18S
GRAND CANYON   PTCLDY    67  52  58 CALM      30.37R
KINGMAN        PTCLDY    76  61  59 NE10      30.15R
FLAGSTAFF      MOCLDY    66  52  60 CALM      30.40R

$$

REGIONAL REPORTS    NEVADA/IDAHO/WYOMING

CITY           SKY/WX    TMP DP  RH WIND       PRES   REMARKS
LAS VEGAS, NV  CLOUDY    86  61  42 S10       29.99S
ELY            CLOUDY    65  54  67 W7        30.34S
ELKO           CLOUDY    72  51  47 E8        30.28R
POCATELLO, ID  LGT RAIN  75  49  39 S9        30.23R
BURLEY         CLOUDY    76  57  51 E3        30.13R
EVANSTON, WY   CLOUDY    57  54  89 SW18G24   30.37S
ROCK SPRINGS   CLOUDY    75  41  29 NW10      30.31R

$$



USA.gov is the U.S. government's official web portal to all federal, state and local government web resources and services.